Weather History for KUIN - May, 2013

Change the Weather History Date:

Saturday, May 25, 2013

  Actual Average Record
Temperature  
Mean Temperature 59 °F 66 °F  
Max Temperature 65 °F 75 °F 95 °F (1911)
Min Temperature 52 °F 56 °F 34 °F (1925)
Degree Days  
Heating Degree Days 6 3  
Month to date heating degree days 140 123  
Since 1 July heating degree days 5625 5553  
Cooling Degree Days 0 3  
Month to date cooling degree days 71 45  
Year to date cooling degree days 85 63  
Growing Degree Days 7 (Base 50)    
Moisture  
Dew Point 48 °F    
Average Humidity 67    
Maximum Humidity 77    
Minimum Humidity 57    
Precipitation  
Precipitation 0.48 in 0.16 in 1.76 in (1990)
Month to date precipitation 4.79 3.60  
Year to date precipitation 18.64 13.15  
Sea Level Pressure  
Sea Level Pressure 30.25 in    
Wind  
Wind Speed 11 mph (ESE)    
Max Wind Speed 21 mph    
Max Gust Speed 28 mph    
Visibility 8 miles    
Events Rain , Thunderstorm    
T = Trace of Precipitation, MM = Missing Value Source: NWS Daily Summary

Daily Weather History Graph

Daily Weather History Graph

Search for Another Location

Airport or City:

Trip Planner

Search our weather history database for the weather conditions in past years. The results will help you decide how hot, cold, wet, or windy it might be!

Date:

Astronomy

May. 25, 2013 Rise Set
Actual Time 5:41 AM CDT 8:22 PM CDT
Civil Twilight 5:10 AM CDT 8:53 PM CDT
Nautical Twilight 4:30 AM CDT 9:33 PM CDT
Astronomical Twilight 3:46 AM CDT 10:18 PM CDT
Moon 9:10 PM CDT (5/25) 6:08 AM CDT (5/25)
Length of Visible Light 15h 43m
Length of Day
14h 40m
Full, 100% of the Moon is Illuminated
May 25
Full
May 31
Last Quarter
Jun 8
New
Jun 16
First Quarter
Jun 23
Full

Hourly Weather History & Observations

Time (CDT) Temp. Dew Point Humidity Pressure Visibility Wind Dir Wind Speed Gust Speed Precip Events Conditions
12:54 AM 55.9 °F 44.1 °F 64% 30.28 in 10.0 mi ESE 5.8 mph - N/A   Clear
1:54 AM 57.0 °F 44.1 °F 62% 30.22 in 10.0 mi SE 6.9 mph - N/A   Scattered Clouds
2:54 AM 57.0 °F 42.1 °F 57% 30.26 in 10.0 mi South 4.6 mph - N/A   Partly Cloudy
3:54 AM 55.9 °F 45.0 °F 67% 30.24 in 10.0 mi SE 8.1 mph - N/A   Mostly Cloudy
4:54 AM 57.0 °F 44.1 °F 62% 30.28 in 10.0 mi ENE 4.6 mph - N/A   Overcast
5:54 AM 55.9 °F 46.0 °F 69% 30.32 in 10.0 mi SSE 4.6 mph - 0.00 in Rain Light Rain
6:54 AM 55.0 °F 46.9 °F 74% 30.27 in 10.0 mi SE 10.4 mph - 0.00 in Rain Light Rain
7:54 AM 55.0 °F 46.9 °F 74% 30.28 in 10.0 mi ESE 10.4 mph - 0.00 in   Mostly Cloudy
8:54 AM 55.0 °F 46.9 °F 74% 30.30 in 10.0 mi ESE 9.2 mph - 0.00 in   Scattered Clouds
9:54 AM 54.0 °F 48.0 °F 80% 30.30 in 10.0 mi East 4.6 mph - 0.03 in Rain Light Rain
10:54 AM 52.0 °F 48.9 °F 89% 30.36 in 3.0 mi NE 10.4 mph - 0.13 in Rain , Thunderstorm Rain
11:03 AM 51.8 °F 48.2 °F 88% 30.34 in 2.5 mi East 11.5 mph - 0.04 in Rain , Thunderstorm Heavy Rain
11:13 AM 51.8 °F 48.2 °F 88% 30.34 in 4.0 mi NE 13.8 mph - 0.07 in Rain , Thunderstorm Rain
11:44 AM 51.8 °F 48.2 °F 88% 30.31 in 3.0 mi East 12.7 mph 20.7 mph 0.14 in Rain , Thunderstorm Rain
11:54 AM 52.0 °F 48.9 °F 89% 30.32 in 4.0 mi East 9.2 mph - 0.16 in Rain , Thunderstorm Rain
12:05 PM 51.8 °F 48.2 °F 88% 30.32 in 3.0 mi ESE 10.4 mph - 0.04 in Rain Rain
12:15 PM 51.8 °F 48.2 °F 88% 30.31 in 4.0 mi SE 10.4 mph - 0.05 in Rain , Thunderstorm Light Rain
12:27 PM 51.8 °F 48.2 °F 88% 30.29 in 2.5 mi SE 13.8 mph - 0.11 in Rain , Thunderstorm Thunderstorms and Rain
12:36 PM 51.8 °F 48.2 °F 88% 30.28 in 4.0 mi SSE 10.4 mph - 0.12 in Rain , Thunderstorm Light Thunderstorms and Rain
12:54 PM 52.0 °F 48.9 °F 89% 30.25 in 6.0 mi SSE 15.0 mph 24.2 mph 0.14 in Rain , Thunderstorm Light Thunderstorms and Rain
1:00 PM 51.8 °F 48.2 °F 88% 30.23 in 8.0 mi SE 18.4 mph 25.3 mph 0.01 in Rain , Thunderstorm Light Rain
1:21 PM 53.6 °F 48.2 °F 82% 30.28 in 9.0 mi ESE 9.2 mph - 0.02 in Rain Light Rain
1:54 PM 55.9 °F 50.0 °F 80% 30.23 in 10.0 mi SE 13.8 mph - 0.02 in   Mostly Cloudy
2:54 PM 57.9 °F 48.0 °F 70% 30.19 in 10.0 mi SSE 13.8 mph 24.2 mph N/A   Overcast
3:54 PM 61.0 °F 48.0 °F 62% 30.16 in 10.0 mi South 15.0 mph - N/A   Overcast
4:54 PM 62.1 °F 48.9 °F 62% 30.17 in 10.0 mi South 10.4 mph - N/A   Overcast
5:54 PM 63.0 °F 52.0 °F 67% 30.18 in 10.0 mi SE 8.1 mph - N/A   Overcast
6:54 PM 62.1 °F 52.0 °F 70% 30.17 in 10.0 mi ENE 11.5 mph - N/A   Overcast
7:54 PM 59.0 °F 52.0 °F 78% 30.18 in 10.0 mi ENE 15.0 mph - N/A   Overcast
8:54 PM 55.9 °F 48.9 °F 77% 30.18 in 10.0 mi East 13.8 mph 20.7 mph N/A   Overcast
9:54 PM 55.0 °F 48.9 °F 80% 30.19 in 10.0 mi ESE 17.3 mph - N/A   Overcast
10:54 PM 55.0 °F 48.0 °F 77% 30.19 in 10.0 mi ESE 17.3 mph 23.0 mph N/A   Overcast
11:54 PM 55.0 °F 46.9 °F 74% 30.19 in 10.0 mi ESE 15.0 mph - N/A   Overcast